Weather Roundup
Issued by NWS Springfield, MO

Home | Current Version | Previous Version | Text Only | Print | Product List | Glossary On
Versions: 1 2 3 4 5 6 7 8 9 10 11 12 13 14 15 16 17 18 19 20 21 22 23 24 25 26 27 28 29 30 31 32 33 34 35 36 37 38 39 40 41 42 43 44 45 46 47 48 49 50
000
NZUS99 KSGF 271007
HRRSGF

HOURLY WEATHER
NATIONAL WEATHER SERVICE SPRINGFIELD MO
400 AM CST FRI FEB 27 2015

......SGF CWA......

CITY           SKY/WX    TMP DP  RH WIND       PRES   REMARKS
SPRINGFIELD    CLEAR      9   0  67 N10       30.50F WCI  -5
JOPLIN         CLEAR     10   3  73 N7        30.55F WCI  -1
WEST PLAINS    CLEAR      8  -1  66 N7        30.50R WCI  -3
ROLLA          CLEAR      4  -4  69 N6        30.51R WCI  -7
OSAGE BEACH    CLEAR      5   0  78 CALM      30.56R
BRANSON        CLEAR     10   1  67 N5        30.51R WCI   2

......SURROUNDING SGF CWA......

CITY           SKY/WX    TMP DP  RH WIND       PRES   REMARKS
CHANUTE        CLEAR      8   0  69 N12       30.58F WCI  -7
PARSONS        CLEAR     10   1  67 N6        30.59F WCI   0
COFFEYVILLE    CLEAR     10   1  67 N10       30.58F WCI  -4
EMPORIA        PTCLDY     6   0  76 NE5       30.55F WCI  -3
GROVE OK       CLEAR     18   7  62 NE6       30.57S WCI   9
ROGERS AR      CLEAR     11   4  73 NE7       30.50R WCI   0
SILOAM SPRINGS CLEAR     14   1  57 NE6       30.50S WCI   5
HARRISON AR    CLEAR     10   3  73 N5        30.49R WCI   2
NEAR YELLVILLE CLEAR     14   1  57 N7        30.52R WCI   4

......KANSAS AND MISSOURI......

CITY           SKY/WX    TMP DP  RH WIND       PRES   REMARKS
KANSAS CTY INT PTCLDY     2  -4  76 N5        30.58S WCI  -8
DOWNTOWN KC    CLEAR      5  -4  66 N5        30.62S WCI  -4
COLUMBIA       CLEAR      3  -4  72 N8        30.57R WCI -10
SEDALIA        FAIR       5  -3  69 N6        30.60R WCI  -6
ST JOSEPH      CLEAR      1  -5  75 CALM      30.62S
ST LOUIS       CLEAR      4  -5  66 NW5       30.57S WCI  -5
SPIRIT OF STL  CLEAR      5  -5  63 NW7       30.59R WCI  -7
KIRKSVILLE     CLEAR     -3  -7  82 NW3       30.56F
WICHITA        CLOUDY    11   0  61 NE9       30.54S WCI  -2
TOPEKA         CLEAR      4  -2  76 N3        30.61F
OLATHE         FAIR       5  -5  63 N6        30.56F WCI  -6

......TENNESSEE......

CITY           SKY/WX    TMP DP  RH WIND       PRES   REMARKS
MEMPHIS        PTCLDY    23  12  62 N16       30.48R WCI  10
NASHVILLE      CLOUDY    20  13  74 N10G16    30.44R WCI   9

......ARKANSAS.......

CITY           SKY/WX    TMP DP  RH WIND       PRES   REMARKS
FAYETTEVILLE   PTCLDY    13   4  67 NE5       30.49R WCI   5
FT SMITH       CLEAR     21   7  54 N8        30.53R WCI  11
LITTLE ROCK    PTCLDY    22  10  60 N8        30.53R WCI  12

......OKLAHOMA.......

CITY           SKY/WX    TMP DP  RH WIND       PRES   REMARKS
TULSA          CLOUDY    17   4  56 N14       30.55F WCI   3
PONCA CITY     CLOUDY    14   2  58 NE10      30.56S WCI   1
MCALESTER      PTCLDY    22   7  52 NE13      30.47F WCI  10
OKLAHOMA CITY  CLOUDY    20   1  43 NE16G26   30.45F WCI   6

......IOWA............

CITY           SKY/WX    TMP DP  RH WIND       PRES   REMARKS
DES MOINES     CLEAR     -5 -11  75 NW3       30.58R
QUAD CITIES    PTCLDY   -10 -15  78 W7        30.55R WCI -25

......ILLINOIS........

CITY           SKY/WX    TMP DP  RH WIND       PRES   REMARKS
QUINCY         CLEAR     -6 -11  79 W6        30.56S WCI -19
CHICAGO        CLEAR      2  -8  63 NW10      30.47R WCI -14



USA.gov is the U.S. government's official web portal to all federal, state and local government web resources and services.